This is the latest recevied weather packets stored in our database for station/object HB9GPU-10. If no packets are shown the sender has not sent any weather packets the latest 10 day(s).
| Time | Temp. | Humidity | Pressure | Rain* | Wind** | Luminosity | Snow |
|---|---|---|---|---|---|---|---|
| 1787927533 | 30.56° C | 29% | 1019.9 hPa | - | - | - | - |
| 1787926633 | 30° C | 29% | 1019.5 hPa | - | - | - | - |
| 1787925732 | 30° C | 30% | 1019.2 hPa | - | - | - | - |
| 1787924832 | 30° C | 30% | 1019.2 hPa | - | - | - | - |
| 1787923932 | 30.56° C | 29% | 1019.4 hPa | - | - | - | - |
| 1787923032 | 30° C | 30% | 1020.5 hPa | - | - | - | - |
| 1787922132 | 30.56° C | 29% | 1019.2 hPa | - | - | - | - |
| 1787921232 | 30.56° C | 29% | 1019.7 hPa | - | - | - | - |
| 1787920331 | 30.56° C | 29% | 1019.8 hPa | - | - | - | - |
| 1787919431 | 30.56° C | 28% | 1020 hPa | - | - | - | - |
| 1787918531 | 30.56° C | 28% | 1020.5 hPa | - | - | - | - |
| 1787917631 | 30.56° C | 28% | 1020.9 hPa | - | - | - | - |
| 1787916731 | 30° C | 28% | 1020.3 hPa | - | - | - | - |
| 1787915835 | 30° C | 28% | 1020.2 hPa | - | - | - | - |
| 1787914930 | 30° C | 28% | 1019.5 hPa | - | - | - | - |
| 1787914030 | 28.89° C | 30% | 1018.1 hPa | - | - | - | - |
| 1787913130 | 29.44° C | 28% | 1017.2 hPa | - | - | - | - |
| 1787912230 | 29.44° C | 28% | 1017 hPa | - | - | - | - |
| 1787911330 | 29.44° C | 28% | 1016.5 hPa | - | - | - | - |
| 1787910429 | 30° C | 27% | 1016.4 hPa | - | - | - | - |
| 1787909529 | 30° C | 26% | 1016.4 hPa | - | - | - | - |
| 1787908629 | 29.44° C | 28% | 1016.2 hPa | - | - | - | - |
| 1787907729 | 29.44° C | 27% | 1015.7 hPa | - | - | - | - |
| 1787906829 | 29.44° C | 28% | 1015.4 hPa | - | - | - | - |
| 1787905928 | 28.89° C | 27% | 1014.8 hPa | - | - | - | - |
* Rain since midnight (hover to see other rain measurements)
** Current wind speed in m/s (hover to see current wind gust speed)